sat.trackr.live / text

‹ back to catalog

COSMOS 2457 (733)

NORAD 36112 · 2009-070B

PAYLOAD ACTIVE UNKNOWN

§ Identity

Operator
Country
CIS
Launch date
2009-12-14
Launch site
TYMSC
Launch vehicle
Mass (kg)
RCS (m²)
6.31

Purposes: nav

External: N2YO · Heavens-Above · Gunter

§ Orbital elements

Epoch: 2026-09-06T02:32:58.320384Z

Period
675.74 min
Inclination
65.0483°
Eccentricity
0.0005748
Mean motion
2.13100949 rev/d
Perigee alt
19,115.3 km
Apogee alt
19,144.6 km
Semi-major
25,508.1 km
B*
0.0000e+0
RAAN
68.0567°
Arg perigee
129.4836°
Mean anomaly
52.1383°
Rev number
13,015

§ Raw data

COSMOS 2457 (733)1 36112U 09070B   26249.10623056  .00000036  00000+0  00000+0 0  99922 36112  65.0483  68.0567 0005748 129.4836  52.1383  2.13100949130151

JSON: /api/v1/satellites/36112 · /tle

For live sub-satellite position, see the globe view (requires WebGL).

§ Visibility from observer

Set your observer location to see the next 7 days of passes ≥ 10°. The values pass through the URL so the page stays shareable.

No JS? Fill the form by hand. The geolocation button needs JavaScript.